Location: Newark
(51.3318°N, 0.0053°E)
Time: 15:58:21
(UTC+00:00)

LO-87 - Pass Details

Date: 07 July 2022
Orbit: 450 x 466 km, 97.4° (Epoch: 18 August)

Event Time Altitude Azimuth Distance (km) Brightness Sun altitude
Exits shadow 23:21:11 34° 159° (SSE) 790 ? -15.5°
Maximum altitude 23:22:36 82° 77° (ENE) 477 ? -15.6°
Drops below altitude 10° 23:26:07 10° 348° (NNW) 1,638 ? -15.7°
Sets 23:28:11 0° 348° (NNW) 2,523 ? -15.7°
